Marshfield, WI

1:33 AM CDT on May 27, 2018 (GMT -0500)
Marshfield Municipal

Weather History for KMFI - January, 2012

Change the Weather History Date:

Saturday, January 21, 2012

  Actual Average Record
Temperature  
Mean Temperature 4 °F -  
Max Temperature 16 °F 26 °F 43 °F (1964)
Min Temperature -9 °F 6 °F -35 °F (1924)
Degree Days  
Heating Degree Days 62    
Moisture  
Dew Point -4 °F    
Average Humidity 65    
Maximum Humidity 91    
Minimum Humidity 43    
Precipitation  
Precipitation 0.00 in - - ()
Sea Level Pressure  
Sea Level Pressure 30.20 in    
Wind  
Wind Speed 6 mph (SSE)    
Max Wind Speed 14 mph    
Max Gust Speed 20 mph    
Visibility 10 miles    
Events Snow    
Averages and records for this station are not official NWS values.
T = Trace of Precipitation, MM = Missing Value Source: NWS Daily Summary

Daily Weather History Graph

Daily Weather History Graph

Search for Another Location

Airport or City:

Astronomy

Jan. 21, 2012 Rise Set
Actual Time 7:30 AM CST 4:53 PM CST
Civil Twilight 6:58 AM CST 5:25 PM CST
Nautical Twilight 6:22 AM CST 6:01 PM CST
Astronomical Twilight 5:48 AM CST 6:36 PM CST
Moon 6:03 AM CST (1/21) 3:28 PM CST (1/21)
Length of Visible Light 10h 27m
Length of Day
9h 23m
Waning Crescent, 3% of the Moon is Illuminated
Jan 21
Waning Crescent
Jan 23
New
Jan 30
First Quarter
Feb 7
Full
Feb 14
Last Quarter

Hourly Weather History & Observations

Time (CST) Temp. Windchill Dew Point Humidity Pressure Visibility Wind Dir Wind Speed Gust Speed Precip Events Conditions
12:54 AM -5.1 °F -20.4 °F -9.0 °F 83% 30.28 in 10.0 mi NNW 8.1 mph - N/A   Clear
1:54 AM -6.0 °F -18.6 °F -11.0 °F 79% 30.28 in 10.0 mi NW 5.8 mph - N/A   Clear
2:54 AM -2.9 °F -13.3 °F -8.0 °F 79% 30.27 in 10.0 mi WNW 4.6 mph - N/A   Clear
3:54 AM -9.0 °F -22.3 °F -13.0 °F 83% 30.27 in 10.0 mi WNW 5.8 mph - N/A   Clear
4:54 AM -9.0 °F -18.2 °F -13.0 °F 83% 30.26 in 10.0 mi NW 3.5 mph - N/A   Clear
5:54 AM -8.0 °F -16.9 °F -11.9 °F 83% 30.27 in 10.0 mi NNW 3.5 mph - N/A   Clear
6:54 AM -7.1 °F - -11.9 °F 79% 30.28 in 9.0 mi Calm Calm - N/A   Clear
7:54 AM -7.1 °F - -11.9 °F 79% 30.29 in 9.0 mi Calm Calm - N/A   Clear
8:54 AM -0.9 °F - -2.9 °F 91% 30.30 in 6.0 mi Calm Calm - N/A   Clear
9:54 AM 5.0 °F -2.1 °F -2.0 °F 73% 30.27 in 10.0 mi ENE 3.5 mph - N/A   Clear
10:54 AM 7.0 °F -1.7 °F -2.0 °F 67% 30.28 in 10.0 mi SE 4.6 mph - N/A   Clear
11:54 AM 10.9 °F 4.7 °F -0.0 °F 61% 30.27 in 10.0 mi ESE 3.5 mph - N/A   Clear
12:54 PM 12.9 °F 2.6 °F -0.0 °F 56% 30.24 in 10.0 mi SSE 6.9 mph - N/A   Clear
1:54 PM 15.1 °F 4.2 °F -0.0 °F 51% 30.23 in 10.0 mi SSE 8.1 mph - 0.00 in   Clear
2:54 PM 16.0 °F 7.4 °F -0.0 °F 49% 30.21 in 10.0 mi SSE 5.8 mph - N/A   Clear
3:54 PM 16.0 °F 5.3 °F -2.0 °F 45% 30.21 in 10.0 mi SSE 8.1 mph - N/A   Clear
4:54 PM 16.0 °F 5.3 °F -2.9 °F 43% 30.20 in 10.0 mi SE 8.1 mph - N/A   Overcast
5:54 PM 16.0 °F 3.6 °F -2.9 °F 43% 30.18 in 10.0 mi SSE 10.4 mph - N/A   Overcast
6:54 PM 16.0 °F 4.4 °F -0.0 °F 49% 30.16 in 10.0 mi SSE 9.2 mph - N/A   Mostly Cloudy
7:54 PM 15.1 °F 1.8 °F -0.0 °F 51% 30.14 in 10.0 mi SE 11.5 mph - N/A   Overcast
8:45 PM 14.0 °F 2.0 °F -0.4 °F 53% 30.02 in 10.0 mi SSE 9.2 mph - N/A   Partly Cloudy
9:54 PM 12.9 °F -0.9 °F 1.9 °F 62% 30.09 in 10.0 mi SSE 11.5 mph - N/A   Clear
10:45 PM 12.2 °F -3.1 °F 3.2 °F 67% 29.97 in 10.0 mi SSE 13.8 mph - N/A   Mostly Cloudy
10:54 PM 14.0 °F 1.2 °F 3.9 °F 64% 30.06 in 10.0 mi SSE 10.4 mph 19.6 mph 0.00 in Snow Light Snow
11:07 PM 14.0 °F -0.2 °F 3.2 °F 62% 29.97 in 9.0 mi SSE 12.7 mph - 0.00 in   Mostly Cloudy